Salt Flat, TX

12:46 AM CST on February 27, 2017 (GMT -0600)
Guadalupe Pass

Weather History for KGDP - September, 2013

Change the Weather History Date:

Sunday, September 1, 2013

  Actual Average Record
Temperature  
Mean Temperature 79 °F -  
Max Temperature 89 °F 81 °F 97 °F (2014)
Min Temperature 70 °F 62 °F 55 °F (2004)
Cooling Degree Days 14    
Growing Degree Days 29 (Base 50)    
Moisture  
Dew Point 46 °F    
Average Humidity 32    
Maximum Humidity 46    
Minimum Humidity 20    
Precipitation  
Precipitation 0.00 in - - ()
Sea Level Pressure  
Sea Level Pressure 29.87 in    
Wind  
Wind Speed 20 mph (ENE)    
Max Wind Speed 26 mph    
Max Gust Speed 32 mph    
Visibility 9 miles    
Events      
Averages and records for this station are not official NWS values.
T = Trace of Precipitation, MM = Missing Value Source: NWS Daily Summary

Daily Weather History Graph

Daily Weather History Graph

Search for Another Location

Airport or City:

Trip Planner

Search our weather history database for the weather conditions in past years. The results will help you decide how hot, cold, wet, or windy it might be!

Date:

Astronomy

Sep. 01, 2013 Rise Set
Actual Time 6:34 AM MDT 7:22 PM MDT
Civil Twilight 6:10 AM MDT 7:47 PM MDT
Nautical Twilight 5:40 AM MDT 8:16 PM MDT
Astronomical Twilight 5:10 AM MDT 8:46 PM MDT
Moon 3:07 AM MDT (9/1) 4:54 PM MDT (9/1)
Length of Visible Light 13h 37m
Length of Day
12h 47m
Waning Crescent, 13% of the Moon is Illuminated
Sep 1
Waning Crescent
Sep 5
New
Sep 12
First Quarter
Sep 19
Full
Sep 26
Last Quarter

Hourly Weather History & Observations

Time (MDT) Temp. Dew Point Humidity Pressure Visibility Wind Dir Wind Speed Gust Speed Precip Events Conditions
12:51 AM 73.0 °F 46.9 °F 39% 29.84 in 9.0 mi NE 21.9 mph - N/A   Clear
1:51 AM 73.0 °F 46.9 °F 39% 29.83 in 9.0 mi NE 21.9 mph - N/A   Clear
2:51 AM 72.0 °F 48.0 °F 43% 29.83 in 9.0 mi NE 16.1 mph - N/A   Clear
3:51 AM 71.1 °F 48.9 °F 45% 29.85 in 9.0 mi NE 12.7 mph - N/A   Clear
4:51 AM 71.1 °F 48.9 °F 45% 29.84 in 9.0 mi NE 18.4 mph - N/A   Clear
5:51 AM 71.1 °F 48.9 °F 45% 29.86 in 9.0 mi NE 17.3 mph - N/A   Clear
6:51 AM 70.0 °F 48.0 °F 46% 29.88 in 8.0 mi NE 19.6 mph - N/A   Clear
7:51 AM 75.9 °F 48.9 °F 38% 29.88 in 8.0 mi NE 18.4 mph - N/A   Clear
8:51 AM 78.1 °F 50.0 °F 37% 29.89 in 8.0 mi ENE 19.6 mph - N/A   Clear
9:51 AM 82.0 °F 50.0 °F 33% 29.90 in 8.0 mi ENE 15.0 mph - N/A   Clear
10:51 AM 84.0 °F 48.0 °F 28% 29.90 in 8.0 mi ENE 16.1 mph 21.9 mph N/A   Clear
11:51 AM 86.0 °F 48.0 °F 27% 29.89 in 8.0 mi ENE 23.0 mph 26.5 mph N/A   Clear
12:51 PM 87.1 °F 44.1 °F 22% 29.88 in 9.0 mi NE 20.7 mph 31.1 mph N/A   Clear
1:51 PM 88.0 °F 42.1 °F 20% 29.87 in 9.0 mi ENE 15.0 mph 32.2 mph N/A   Clear
2:51 PM 88.0 °F 42.1 °F 20% 29.85 in 9.0 mi ENE 19.6 mph 32.2 mph N/A   Clear
3:51 PM 88.0 °F 42.1 °F 20% 29.83 in 8.0 mi East 26.5 mph - N/A   Clear
4:51 PM 87.1 °F 42.1 °F 21% 29.84 in 8.0 mi ENE 23.0 mph - N/A   Clear
5:51 PM 84.9 °F 42.1 °F 22% 29.84 in 8.0 mi ENE 24.2 mph 29.9 mph N/A   Clear
6:51 PM 82.9 °F 44.1 °F 25% 29.86 in 8.0 mi East 23.0 mph - N/A   Clear
7:51 PM 81.0 °F 43.0 °F 26% 29.86 in 9.0 mi ENE 21.9 mph - N/A   Clear
8:51 PM 78.1 °F 44.1 °F 30% 29.89 in 9.0 mi ENE 18.4 mph - N/A   Clear
9:51 PM 77.0 °F 45.0 °F 32% 29.90 in 9.0 mi East 20.7 mph - N/A   Clear
10:51 PM 75.0 °F 46.9 °F 37% 29.90 in 9.0 mi East 21.9 mph - N/A   Clear
11:51 PM 73.9 °F 48.0 °F 40% 29.90 in 9.0 mi ENE 19.6 mph - N/A   Clear